Location: Sternwarte-Kraichtal
(49.1689°N, 8.6996°E)
Time: 19:42:17
(UTC+02:00)

Vanguard 2 Rocket - Pass Details

Date: 28 May 2022
Orbit: 553 x 3323 km, 32.9° (Epoch: 02 July)

Event Time Altitude Azimuth Distance (km) Brightness Sun altitude
Rises 18:47:28 0° 268° (W) 6,813 12.8 21.7°
Reaches altitude 10° 18:53:26 10° 259° (W) 5,393 12.4 20.8°
Maximum altitude 19:04:31 26° 211° (SSW) 3,259 10.1 19.0°
Drops below altitude 10° 19:12:02 10° 159° (SSE) 3,547 9.7 17.8°
Sets 19:15:02 0° 146° (SSE) 4,166 9.9 17.3°
